DW3607 Weather Reports


Display with metric or nautical units.
time (UTC)temp
F
wind
direction
speed
MPH
gust
MPH
rain 1hr
in
rain 24hr
in
rain mn
in
humidity
%
barometer
mb
20210124182208 23 146 0.0 5.0 0.00 0.00 0.00 88 1053.9
20210124181706 23 146 1.0 5.0 0.00 0.00 0.00 88 1054.1
20210124181205 23 157 2.0 3.0 0.00 0.00 0.00 87 1054.2
20210124180705 23 130 2.0 3.0 0.00 0.00 0.00 87 1054.4
20210124180239 23 128 1.0 3.0 0.00 0.00 0.00 86 1054.5
20210124175705 23 155 2.0 5.0 0.00 0.00 0.00 85 1054.6
20210124175208 24 154 2.0 5.0 0.00 0.00 0.00 83 1054.7
20210124174708 24 110 2.0 6.0 0.00 0.00 0.00 81 1054.7
20210124174205 24 147 1.0 6.0 0.00 0.00 0.00 80 1054.9
20210124173705 24 127 1.0 6.0 0.00 0.00 0.00 80 1055.0
20210124173205 24 102 1.0 5.0 0.00 0.00 0.00 80 1055.1
20210124172704 24 116 1.0 3.0 0.00 0.00 0.00 80 1055.2
20210124172208 24 90 1.0 3.0 0.00 0.00 0.00 81 1055.3
20210124171704 24 98 1.0 3.0 0.00 0.00 0.00 80 1055.3
20210124171205 24 107 1.0 5.0 0.00 0.00 0.00 81 1055.5
20210124170710 24 128 1.0 5.0 0.00 0.00 0.00 81 1055.6
20210124170206 24 150 2.0 5.0 0.00 0.00 0.00 81 1055.7
20210124165706 24 96 1.0 3.0 0.00 0.00 0.00 80 1055.8
20210124165204 24 104 1.0 6.0 0.00 0.00 0.00 80 1055.9
20210124164704 24 103 1.0 6.0 0.00 0.00 0.00 80 1055.9
20210124164206 23 102 2.0 6.0 0.00 0.00 0.00 81 1056.0
20210124163708 23 121 2.0 3.0 0.00 0.00 0.00 81 1056.1
20210124163207 23 126 2.0 3.0 0.00 0.00 0.00 82 1056.2
20210124162705 23 171 1.0 2.0 0.00 0.00 0.00 83 1056.4
20210124162206 22 171 0.0 2.0 0.00 0.00 0.00 83 1056.5
20210124161705 22 189 0.0 6.0 0.00 0.00 0.00 84 1056.7
20210124161205 21 171 1.0 6.0 0.00 0.00 0.00 84 1056.9
20210124160705 21 157 2.0 3.0 0.00 0.00 0.00 85 1057.1
20210124160205 21 129 0.0 3.0 0.00 0.00 0.00 85 1057.1
20210124155707 21 116 0.0 3.0 0.00 0.00 0.00 86 1057.2
20210124155207 20 117 0.0 3.0 0.00 0.00 0.00 86 1057.3
20210124154704 20 172 2.0 3.0 0.00 0.00 0.00 87 1057.4
20210124154206 20 196 1.0 2.0 0.00 0.00 0.00 88 1057.5
20210124153707 19 192 1.0 2.0 0.00 0.00 0.00 88 1057.5
20210124153206 19 202 1.0 2.0 0.00 0.00 0.00 89 1057.6
20210124152704 19 200 1.0 2.0 0.00 0.00 0.00 89 1057.6
20210124152204 18 195 1.0 3.0 0.00 0.00 0.00 89 1057.6
20210124151712 18 191 1.0 3.0 0.00 0.00 0.00 89 1057.7
20210124151205 18 194 1.0 3.0 0.00 0.00 0.00 90 1057.8
20210124150704 18 203 1.0 3.0 0.00 0.00 0.00 90 1057.9
20210124150208 17 202 1.0 3.0 0.00 0.00 0.00 90 1057.9
20210124145704 17 202 1.0 2.0 0.00 0.00 0.00 90 1057.7
20210124145206 17 202 2.0 2.0 0.00 0.00 0.00 91 1057.6
20210124144708 17 185 0.0 2.0 0.00 0.00 0.00 91 1057.6
20210124144211 16 184 0.0 2.0 0.00 0.00 0.00 91 1057.5
20210124143705 16 185 0.0 2.0 0.00 0.00 0.00 91 1057.3
20210124143206 15 262 0.0 0.0 0.00 0.00 0.00 91 1057.4
20210124142706 14 262 0.0 0.0 0.00 0.00 0.00 91 1057.3
20210124142205 14 262 0.0 0.0 0.00 0.00 0.00 90 1057.5
20210124141707 13 262 0.0 0.0 0.00 0.00 0.00 90 1057.5
20210124141206 13 262 0.0 0.0 0.00 0.00 0.00 90 1057.5
20210124140705 13 262 0.0 0.0 0.00 0.00 0.00 91 1057.5
20210124140207 12 262 0.0 0.0 0.00 0.00 0.00 90 1057.4
20210124135706 12 262 0.0 0.0 0.00 0.00 0.00 91 1057.5
20210124135214 12 262 0.0 0.0 0.00 0.00 0.00 91 1057.4
20210124134707 12 262 0.0 0.0 0.00 0.00 0.00 91 1057.3
20210124134207 11 262 0.0 0.0 0.00 0.00 0.00 91 1057.4
20210124133714 11 262 0.0 0.0 0.00 0.00 0.00 91 1057.5
20210124133206 10 262 0.0 0.0 0.00 0.00 0.00 90 1057.4
20210124132708 10 262 0.0 0.0 0.00 0.00 0.00 90 1057.4
20210124132205 9 262 0.0 0.0 0.00 0.00 0.00 90 1057.5
20210124131713 9 262 0.0 0.0 0.00 0.00 0.00 90 1057.5
20210124131209 7 318 0.0 0.0 0.00 0.00 0.00 89 1057.7
20210124130717 5 0 0.0 0.0 0.00 0.00 0.00 89 1057.6
20210124130205 5 0 0.0 0.0 0.00 0.00 0.00 89 1057.7
20210124125708 5 0 0.0 0.0 0.00 0.00 0.00 89 1057.7
20210124125205 5 0 0.0 0.0 0.00 0.00 0.00 89 1057.8
20210124124707 5 0 0.0 0.0 0.00 0.00 0.00 89 1058.0
20210124124211 5 0 0.0 0.0 0.00 0.00 0.00 89 1058.0
20210124123705 5 0 0.0 0.0 0.00 0.00 0.00 89 1058.0
20210124123207 5 0 0.0 0.0 0.00 0.00 0.00 89 1058.1
20210124122715 5 0 0.0 0.0 0.00 0.00 0.00 89 1058.1
20210124122206 5 0 0.0 0.0 0.00 0.00 0.00 89 1058.1
20210124121705 5 0 0.0 0.0 0.00 0.00 0.00 89 1058.1
20210124121205 5 0 0.0 0.0 0.00 0.00 0.00 89 1058.0
20210124120708 5 12 0.0 0.0 0.00 0.00 0.00 89 1058.1
20210124120204 5 262 0.0 0.0 0.00 0.00 0.00 89 1058.1
20210124115710 5 262 0.0 0.0 0.00 0.00 0.00 89 1058.1
20210124115211 5 262 0.0 0.0 0.00 0.00 0.00 89 1058.0
20210124114707 5 262 0.0 0.0 0.00 0.00 0.00 88 1058.1
20210124114207 5 262 0.0 0.0 0.00 0.00 0.00 88 1058.1
20210124113704 5 262 0.0 0.0 0.00 0.00 0.00 88 1058.2
20210124113305 5 262 0.0 0.0 0.00 0.00 0.00 88 1058.2
20210124112709 5 262 0.0 0.0 0.00 0.00 0.00 88 1058.2
20210124112206 5 262 0.0 0.0 0.00 0.00 0.00 89 1058.2
20210124111706 5 262 0.0 0.0 0.00 0.00 0.00 89 1058.3
20210124111205 5 262 0.0 0.0 0.00 0.00 0.00 89 1058.3
20210124110705 6 262 0.0 0.0 0.00 0.00 0.00 89 1058.3
20210124110205 5 262 0.0 0.0 0.00 0.00 0.00 89 1058.3
20210124105704 5 262 0.0 0.0 0.00 0.00 0.00 89 1058.3
20210124105212 5 262 0.0 0.0 0.00 0.00 0.00 89 1058.3
20210124104709 6 262 0.0 0.0 0.00 0.00 0.00 89 1058.3
20210124104227 6 262 0.0 0.0 0.00 0.00 0.00 90 1058.3
20210124103706 5 262 0.0 0.0 0.00 0.00 0.00 89 1058.4
20210124103205 5 262 0.0 0.0 0.00 0.00 0.00 89 1058.3
20210124102707 5 262 0.0 0.0 0.00 0.00 0.00 89 1058.3
20210124102204 5 262 0.0 0.0 0.00 0.00 0.00 89 1058.4
20210124101704 5 262 0.0 0.0 0.00 0.00 0.00 89 1058.6
20210124101204 5 262 0.0 0.0 0.00 0.00 0.00 88 1058.5
20210124100707 5 262 0.0 0.0 0.00 0.00 0.00 88 1058.5
20210124100213 5 262 0.0 0.0 0.00 0.00 0.00 88 1058.5
20210124095706 5 262 0.0 0.0 0.00 0.00 0.00 88 1058.6
20210124095214 5 262 0.0 0.0 0.00 0.00 0.00 88 1058.7
20210124094710 5 262 0.0 0.0 0.00 0.00 0.00 89 1058.6
20210124094207 5 262 0.0 0.0 0.00 0.00 0.00 89 1058.6
20210124093716 5 262 0.0 0.0 0.00 0.00 0.00 89 1058.6
20210124093208 4 262 0.0 0.0 0.00 0.00 0.00 89 1058.5
20210124092706 4 262 0.0 0.0 0.00 0.00 0.00 88 1058.6
20210124092212 4 262 0.0 0.0 0.00 0.00 0.00 88 1058.6
20210124091705 4 262 0.0 0.0 0.00 0.00 0.00 88 1058.7
20210124091205 5 262 0.0 0.0 0.00 0.00 0.00 88 1058.7
20210124090704 5 262 0.0 0.0 0.00 0.00 0.00 88 1058.8
20210124090205 5 262 0.0 0.0 0.00 0.00 0.00 88 1058.9
20210124085705 5 262 0.0 0.0 0.00 0.00 0.00 88 1058.8
20210124085205 5 262 0.0 0.0 0.00 0.00 0.00 88 1058.9
20210124084706 6 262 0.0 0.0 0.00 0.00 0.00 88 1058.9
20210124084205 6 262 0.0 0.0 0.00 0.00 0.00 89 1058.9
20210124083704 6 262 0.0 0.0 0.00 0.00 0.00 88 1059.0
20210124083204 6 262 0.0 0.0 0.00 0.00 0.00 89 1058.9
20210124082708 6 262 0.0 0.0 0.00 0.00 0.00 88 1058.8
20210124082204 6 262 0.0 0.0 0.00 0.00 0.00 88 1058.7
20210124081707 7 262 0.0 0.0 0.00 0.00 0.00 89 1058.7
20210124081205 7 262 0.0 0.0 0.00 0.00 0.00 89 1058.8
20210124080706 8 262 0.0 0.0 0.00 0.00 0.00 89 1058.8
20210124080207 8 262 0.0 0.0 0.00 0.00 0.00 89 1058.7
20210124075705 8 262 0.0 0.0 0.00 0.00 0.00 89 1058.7
20210124075206 8 262 0.0 0.0 0.00 0.00 0.00 89 1058.7
20210124074704 8 262 0.0 0.0 0.00 0.00 0.00 90 1058.7
20210124074204 8 262 0.0 0.0 0.00 0.00 0.00 89 1058.8
20210124073711 8 262 0.0 0.0 0.00 0.00 0.00 90 1058.7
20210124073204 8 262 0.0 0.0 0.00 0.00 0.00 90 1058.7
20210124072705 8 262 0.0 0.0 0.00 0.00 0.00 90 1058.6
20210124072205 8 262 0.0 0.0 0.00 0.00 0.00 90 1058.5
20210124071706 8 262 0.0 0.0 0.00 0.00 0.00 89 1058.6
20210124071206 8 262 0.0 0.0 0.00 0.00 0.00 89 1058.6
20210124070706 8 262 0.0 0.0 0.00 0.00 0.00 89 1058.4
20210124070205 8 262 0.0 0.0 0.00 0.00 0.00 89 1058.5
20210124065706 8 262 0.0 0.0 0.00 0.00 0.00 89 1058.7
20210124065204 8 262 0.0 0.0 0.00 0.00 0.00 90 1058.7
20210124064705 8 262 0.0 0.0 0.00 0.00 0.00 90 1058.6
20210124064205 8 262 0.0 0.0 0.00 0.00 0.00 89 1058.7
20210124063709 7 262 0.0 0.0 0.00 0.00 0.00 89 1058.7
20210124063207 7 262 0.0 0.0 0.00 0.00 0.00 88 1058.8
20210124062705 8 262 0.0 0.0 0.00 0.00 0.00 88 1058.8
20210124062206 9 262 0.0 0.0 0.00 0.00 0.00 88 1058.8
20210124061704 9 262 0.0 0.0 0.00 0.00 0.00 89 1058.8
20210124061204 9 262 0.0 0.0 0.00 0.00 0.00 89 1058.9
20210124060705 10 262 0.0 0.0 0.00 0.00 0.00 90 1059.0
20210124060216 9 262 0.0 0.0 0.00 0.00 0.00 89 1059.0
20210124055705 10 262 0.0 0.0 0.00 0.00 0.00 89 1059.0
20210124055206 10 262 0.0 0.0 0.00 0.00 0.00 89 1059.1
20210124054706 10 262 0.0 0.0 0.00 0.00 0.00 89 1059.1
20210124054207 10 262 0.0 0.0 0.00 0.00 0.00 89 1059.2
20210124053704 10 262 0.0 0.0 0.00 0.00 0.00 89 1059.2
20210124053205 10 262 0.0 0.0 0.00 0.00 0.00 89 1059.2
20210124052705 10 262 0.0 0.0 0.00 0.00 0.00 89 1059.3
20210124052210 10 262 0.0 0.0 0.00 0.00 0.00 89 1059.3
20210124051707 10 262 0.0 0.0 0.00 0.00 0.00 89 1059.4
20210124051207 10 262 0.0 0.0 0.00 0.00 0.00 89 1059.3
20210124050705 10 262 0.0 0.0 0.00 0.00 0.00 89 1059.4
20210124050206 10 262 0.0 0.0 0.00 0.00 0.00 89 1059.5
20210124045705 10 262 0.0 0.0 0.00 0.00 0.00 89 1059.6
20210124045208 10 262 0.0 0.0 0.00 0.00 0.00 89 1059.5
20210124044706 11 262 0.0 0.0 0.00 0.00 0.00 89 1059.6
20210124044204 11 262 0.0 0.0 0.00 0.00 0.00 90 1059.7
20210124043705 10 262 0.0 0.0 0.00 0.00 0.00 89 1059.7
20210124043205 11 262 0.0 0.0 0.00 0.00 0.00 89 1059.7
20210124042704 11 262 0.0 0.0 0.00 0.00 0.00 89 1059.6
20210124042207 11 262 0.0 0.0 0.00 0.00 0.00 90 1059.7
20210124041705 11 262 0.0 0.0 0.00 0.00 0.00 90 1059.8
20210124041211 10 262 0.0 0.0 0.00 0.00 0.00 89 1059.7
20210124040706 10 262 0.0 0.0 0.00 0.00 0.00 89 1059.9
20210124040207 10 262 0.0 0.0 0.00 0.00 0.00 89 1059.9
20210124035705 11 262 0.0 0.0 0.00 0.00 0.00 89 1059.9
20210124035209 11 262 0.0 0.0 0.00 0.00 0.00 89 1059.9
20210124034705 10 262 0.0 0.0 0.00 0.00 0.00 89 1059.9
20210124034210 10 262 0.0 0.0 0.00 0.00 0.00 89 1059.9
20210124033705 10 262 0.0 0.0 0.00 0.00 0.00 89 1060.0
20210124033212 10 262 0.0 0.0 0.00 0.00 0.00 89 1059.9
20210124032704 10 262 0.0 0.0 0.00 0.00 0.00 89 1059.9
20210124032205 9 262 0.0 0.0 0.00 0.00 0.00 88 1059.9
20210124031710 9 262 0.0 0.0 0.00 0.00 0.00 87 1059.8
20210124031206 9 262 0.0 0.0 0.00 0.00 0.00 86 1059.8
20210124030704 9 262 0.0 0.0 0.00 0.00 0.00 86 1059.8
20210124030213 10 262 0.0 0.0 0.00 0.00 0.00 85 1059.7
20210124025705 11 262 0.0 0.0 0.00 0.00 0.00 86 1059.7
20210124025204 11 262 0.0 0.0 0.00 0.00 0.00 86 1059.7
20210124024704 12 262 0.0 0.0 0.00 0.00 0.00 85 1059.7
20210124024204 12 262 0.0 0.0 0.00 0.00 0.00 84 1059.7
20210124023705 12 262 0.0 0.0 0.00 0.00 0.00 82 1059.6
20210124023205 13 262 0.0 0.0 0.00 0.00 0.00 81 1059.6
20210124022714 15 262 0.0 0.0 0.00 0.00 0.00 81 1059.6
20210124022211 16 262 0.0 0.0 0.00 0.00 0.00 82 1059.6
20210124021705 17 262 0.0 0.0 0.00 0.00 0.00 83 1059.5
20210124021205 17 262 0.0 0.0 0.00 0.00 0.00 82 1059.4
20210124020709 18 262 0.0 0.0 0.00 0.00 0.00 83 1059.5
20210124020204 18 262 0.0 0.0 0.00 0.00 0.00 84 1059.5
20210124015705 17 262 0.0 0.0 0.00 0.00 0.00 84 1059.7
20210124015205 17 262 0.0 0.0 0.00 0.00 0.00 84 1059.8
20210124014705 17 262 0.0 0.0 0.00 0.00 0.00 83 1059.7
20210124014204 17 262 0.0 0.0 0.00 0.00 0.00 83 1059.6
20210124013704 18 262 0.0 0.0 0.00 0.00 0.00 82 1059.6
20210124013206 18 262 0.0 0.0 0.00 0.00 0.00 83 1059.6
20210124012704 18 262 0.0 0.0 0.00 0.00 0.00 82 1059.5
20210124012205 18 262 0.0 0.0 0.00 0.00 0.00 82 1059.5
20210124011706 18 262 0.0 0.0 0.00 0.00 0.00 82 1059.6
20210124011204 17 262 0.0 0.0 0.00 0.00 0.00 82 1059.5
20210124010707 17 262 0.0 0.0 0.00 0.00 0.00 81 1059.5
20210124010206 17 262 0.0 0.0 0.00 0.00 0.00 80 1059.4
20210124005710 18 262 0.0 0.0 0.00 0.00 0.00 79 1059.4
20210124005209 18 262 0.0 0.0 0.00 0.00 0.00 78 1059.4
20210124004704 19 262 0.0 0.0 0.00 0.00 0.00 79 1059.4
20210124004207 19 262 0.0 1.0 0.00 0.00 0.00 80 1059.4
20210124003709 19 262 0.0 1.0 0.00 0.00 0.00 79 1059.4
20210124003206 19 262 0.0 1.0 0.00 0.00 0.00 79 1059.5
20210124002704 19 271 0.0 1.0 0.00 0.00 0.00 79 1059.5
20210124002204 18 271 0.0 1.0 0.00 0.00 0.00 80 1059.5
20210124001712 18 269 0.0 0.0 0.00 0.00 0.00 77 1059.4
20210124001208 18 269 0.0 0.0 0.00 0.00 0.00 75 1059.5
20210124000704 19 269 0.0 0.0 0.00 0.00 0.00 75 1059.4
20210124000219 20 269 0.0 0.0 0.00 0.00 0.00 74 1059.3
20210123235706 20 269 0.0 0.0 0.00 0.00 0.00 74 1059.3
20210123235206 21 269 0.0 0.0 0.00 0.00 0.00 74 1059.3
20210123234705 21 269 0.0 1.0 0.00 0.00 0.00 75 1059.3
20210123234205 21 269 0.0 1.0 0.00 0.00 0.00 75 1059.3
20210123233704 20 269 0.0 1.0 0.00 0.00 0.00 75 1059.3
20210123233210 21 269 0.0 1.0 0.00 0.00 0.00 74 1059.3
20210123232705 21 271 0.0 1.0 0.00 0.00 0.00 74 1059.4
20210123232206 21 271 0.0 1.0 0.00 0.00 0.00 73 1059.3
20210123231705 21 271 0.0 2.0 0.00 0.00 0.00 73 1059.3
20210123231205 21 272 0.0 2.0 0.00 0.00 0.00 73 1059.2
20210123230704 21 278 1.0 3.0 0.00 0.00 0.00 73 1059.1
20210123230207 21 262 1.0 3.0 0.00 0.00 0.00 73 1059.2
20210123225705 21 274 1.0 2.0 0.00 0.00 0.00 72 1059.3
20210123225204 21 298 0.0 2.0 0.00 0.00 0.00 72 1059.3
20210123224709 21 323 0.0 2.0 0.00 0.00 0.00 72 1059.2
20210123224207 21 284 1.0 3.0 0.00 0.00 0.00 71 1059.2
20210123223704 22 292 0.0 6.0 0.00 0.00 0.00 71 1059.2
20210123223206 22 315 2.0 6.0 0.00 0.00 0.00 71 1059.2
20210123222704 22 266 1.0 3.0 0.00 0.00 0.00 71 1059.3
20210123222204 22 271 2.0 3.0 0.00 0.00 0.00 75 1059.3
20210123221704 22 309 1.0 3.0 0.00 0.00 0.00 70 1059.3
20210123221205 23 306 1.0 3.0 0.00 0.00 0.00 70 1059.4
20210123220705 23 310 2.0 3.0 0.00 0.00 0.00 70 1059.4
20210123220206 23 348 1.0 3.0 0.00 0.00 0.00 69 1059.3
20210123215706 23 337 1.0 3.0 0.00 0.00 0.00 70 1059.2
20210123215205 23 312 1.0 3.0 0.00 0.00 0.00 69 1059.1
20210123214704 23 278 1.0 5.0 0.00 0.00 0.00 69 1059.1
20210123214208 23 278 2.0 6.0 0.00 0.00 0.00 69 1059.0
20210123213708 23 247 3.0 6.0 0.00 0.00 0.00 69 1059.0
20210123213205 23 251 3.0 6.0 0.00 0.00 0.00 69 1059.0
20210123212705 23 258 2.0 6.0 0.00 0.00 0.00 69 1059.0
20210123212204 23 276 2.0 6.0 0.00 0.00 0.00 70 1059.0
20210123211705 22 296 2.0 5.0 0.00 0.00 0.00 70 1058.9
20210123211205 22 313 2.0 6.0 0.00 0.00 0.00 70 1058.9
20210123210704 22 305 2.0 7.0 0.00 0.00 0.00 70 1058.9
20210123210205 22 266 3.0 7.0 0.00 0.00 0.00 70 1058.7
20210123205714 23 261 3.0 7.0 0.00 0.00 0.00 71 1058.7
20210123205211 23 283 2.0 6.0 0.00 0.00 0.00 71 1058.7
20210123204709 23 270 3.0 5.0 0.00 0.00 0.00 72 1058.7
20210123204212 23 263 2.0 5.0 0.00 0.00 0.00 72 1058.7
20210123203704 23 279 1.0 6.0 0.00 0.00 0.00 71 1058.7
20210123203206 23 302 2.0 6.0 0.00 0.00 0.00 71 1058.8
20210123202705 23 283 3.0 6.0 0.00 0.00 0.00 71 1058.7
20210123202210 23 290 3.0 7.0 0.00 0.00 0.00 71 1058.7
20210123201706 23 271 3.0 7.0 0.00 0.00 0.00 71 1058.7
20210123201221 23 255 4.0 7.0 0.00 0.00 0.00 71 1058.6
20210123200704 23 233 2.0 6.0 0.00 0.00 0.00 71 1058.7
20210123200212 23 256 2.0 6.0 0.00 0.00 0.00 69 1058.7
20210123195704 23 318 3.0 6.0 0.00 0.00 0.00 68 1058.7
20210123195208 23 315 2.0 6.0 0.00 0.00 0.00 68 1058.6
20210123194708 24 321 2.0 7.0 0.00 0.00 0.00 67 1058.6
20210123194224 24 281 2.0 7.0 0.00 0.00 0.00 67 1058.5
20210123193705 24 286 2.0 6.0 0.00 0.00 0.00 67 1058.5
20210123193207 24 267 2.0 7.0 0.00 0.00 0.00 67 1058.4
20210123192710 24 285 2.0 7.0 0.00 0.00 0.00 66 1058.5
20210123192205 24 294 1.0 5.0 0.00 0.00 0.00 65 1058.5
20210123191705 24 358 3.0 7.0 0.00 0.00 0.00 65 1058.5
20210123191208 24 307 2.0 7.0 0.00 0.00 0.00 65 1058.3
20210123190722 24 342 2.0 6.0 0.00 0.00 0.00 66 1058.3
20210123190240 24 258 2.0 7.0 0.00 0.00 0.00 67 1058.3
20210123185705 23 294 3.0 7.0 0.00 0.00 0.00 67 1058.2
20210123185206 23 264 3.0 6.0 0.00 0.00 0.00 67 1058.1
20210123184706 23 289 2.0 7.0 0.00 0.00 0.00 66 1058.2
20210123184204 23 258 3.0 7.0 0.00 0.00 0.00 65 1058.2
20210123183704 23 275 2.0 7.0 0.00 0.00 0.00 65 1058.1
20210123183206 24 271 3.0 7.0 0.00 0.00 0.00 66 1058.0
20210123182713 23 276 2.0 7.0 0.00 0.00 0.00 67 1058.1